GFSCGP_prec_cloud_057.txt.gz
Cloud_Cover
0 0 0 0 0 0 0 0 0 0 1 0 0 0 5 53 5 4 5 24 90 6 7 4 0 0 0 0 0 0 0 0 0 0 0 0 0 36 0 2 3 2 0 4
0 0 0 0 0 0 0 0 0 3 3 0 2 0 1 8 4 29 19 47 92 98 4 0 10 0 0 0 0 0 0 0 0 0 0 0 0 0 0 4 4 5 0 0
0 0 0 0 0 0 0 0 0 0 65 5 5 5 4 4 4 10 2 29 29 94 3 1 98 3 0 0 0 0 0 0 0 0 0 0 0 0 0 1 5 5 2 0
0 0 0 0 0 0 0 0 0 0 91 95 18 4 0 2 0 2 0 5 26 55 76 3 96 7 0 0 0 0 0 0 0 0 0 0 0 0 0 3 58 5 0 1
0 0 0 0 0 0 0 0 0 0 2 100 99 97 0 3 0 0 0 14 23 98 88 42 56 42 0 0 0 0 0 0 0 0 0 0 0 0 0 0 1 0 0 0
0 0 0 0 0 0 0 0 0 0 0 1 39 44 0 0 1 38 0 5 70 99 100 65 4 9 16 0 0 0 0 0 0 0 0 0 0 0 0 0 0 0 0 0
0 0 0 0 0 0 0 0 0 0 0 0 0 80 2 0 0 2 0 0 6 6 98 94 32 9 100 61 0 0 0 0 0 0 0 0 0 0 0 0 0 0 0 0
27 0 0 0 0 0 0 0 0 0 0 0 0 0 0 0 0 0 0 5 49 23 99 98 10 80 100 21 5 1 0 0 0 0 0 0 0 0 0 0 0 0 0 0
12 5 0 0 0 0 0 0 0 0 0 0 0 0 0 0 0 0 0 4 5 16 5 100 100 100 90 66 9 5 26 0 0 0 0 0 0 0 0 0 0 0 0 0
57 31 0 0 0 0 0 0 0 0 0 0 0 0 0 0 0 0 0 0 5 62 5 99 100 100 100 100 74 28 93 1 0 0 0 0 0 0 0 0 0 0 0 0
8 66 9 0 0 0 0 0 0 0 0 0 0 0 0 0 0 0 0 0 0 42 5 60 34 100 100 100 87 6 93 99 0 0 0 0 0 0 0 0 0 0 0 0
84 100 100 3 0 0 0 0 0 0 0 0 0 0 0 0 0 0 0 0 91 95 5 1 4 24 67 77 5 22 78 57 12 0 0 0 0 0 0 0 0 0 0 0
97 100 77 0 42 4 4 0 0 0 0 0 0 0 0 0 0 0 0 2 32 98 49 4 0 5 66 100 88 7 3 6 8 0 0 0 0 0 0 0 0 0 0 0
82 100 38 36 39 62 1 0 0 0 0 0 0 0 0 0 0 0 0 0 0 32 42 0 0 5 2 7 1 0 0 0 0 0 0 0 0 0 0 0 0 0 0 0
100 100 67 68 58 88 5 0 0 0 0 0 2 0 0 0 0 0 0 0 0 0 3 2 0 2 0 0 0 0 0 0 0 0 0 0 0 0 0 0 0 0 0 0
100 100 81 25 95 45 43 37 5 0 0 0 1 0 0 0 0 0 0 0 0 0 0 0 0 0 5 0 2 1 0 0 0 0 0 0 0 0 0 0 0 0 0 0
100 100 91 5 98 100 100 100 72 46 0 5 5 5 0 0 0 0 0 0 0 0 0 0 0 0 0 0 0 5 0 0 0 0 0 0 0 0 0 0 0 8 0 0
100 100 100 34 14 100 100 100 100 92 0 2 0 0 2 0 0 0 0 0 0 0 0 0 0 0 0 0 0 88 2 0 0 0 0 0 0 0 0 0 0 10 27 9
100 100 100 71 87 96 100 100 98 6 0 0 5 5 3 3 4 0 0 0 0 0 0 0 0 0 2 0 4 7 24 0 0 0 0 0 4 10 5 3 5 3 2 44
100 100 100 97 92 97 100 100 82 5 0 0 3 0 5 0 0 0 0 0 0 0 0 0 0 0 0 0 4 96 25 5 0 0 5 30 100 100 96 89 11 5 0 0
100 100 100 100 100 100 100 100 76 100 1 0 0 0 0 0 0 0 0 0 4 2 0 0 0 43 17 0 0 5 74 1 2 0 4 33 82 98 90 70 5 5 0 0
100 100 100 100 95 100 100 90 100 70 17 11 0 0 0 14 4 0 0 0 5 5 1 0 0 1 27 4 0 0 5 5 86 4 0 0 4 77 99 86 12 2 0 0
100 100 100 100 100 100 100 100 93 24 82 16 0 0 4 35 35 0 0 2 2 5 5 0 0 0 0 0 8 0 2 3 42 5 0 0 0 0 13 55 5 0 0 0
100 100 100 87 100 100 97 43 99 100 91 37 0 11 31 42 47 10 0 4 4 5 5 4 0 0 0 0 4 35 5 0 0 5 5 1 94 99 93 49 5 5 1 34
100 100 100 100 100 98 100 100 100 80 97 93 6 32 64 72 30 1 3 5 5 14 5 5 0 0 0 0 0 0 0 0 0 0 2 2 5 9 40 50 48 19 5 21
100 100 100 100 100 100 100 100 100 100 87 100 76 72 74 99 94 41 0 5 5 59 6 5 5 5 5 0 0 0 0 0 1 0 1 10 18 8 41 100 100 100 100 100

GFSCGP_prec_cloud_060.txt.gz
Cloud_Cover
0 0 0 0 0 0 0 0 0 5 100 54 3 1 9 4 58 0 5 5 5 5 5 2 2 0 0 0 0 0 0 0 0 3 5 5 5 0 0 0 3 0 0 0
0 0 0 0 0 0 0 0 0 0 9 38 2 0 5 0 1 5 52 20 100 6 0 5 4 4 0 0 0 0 0 0 0 0 3 5 5 2 0 0 4 0 0 0
0 0 0 0 0 0 0 0 0 0 0 21 5 1 0 11 0 3 5 92 27 5 1 3 5 40 0 0 0 0 0 0 0 0 0 0 8 1 0 0 0 0 0 0
0 0 0 0 0 0 0 0 0 0 0 8 36 4 0 0 39 0 0 1 2 5 5 2 5 80 20 0 0 0 0 0 0 0 0 0 3 0 0 0 5 0 0 0
0 0 0 0 0 0 0 0 0 0 0 2 69 42 0 0 56 20 0 0 1 5 5 5 3 50 5 22 0 0 0 0 0 0 0 0 0 0 0 0 0 0 0 0
0 0 0 0 0 0 0 0 0 0 0 0 4 59 0 0 0 0 0 1 4 12 78 36 1 4 3 12 0 0 0 0 0 0 0 0 0 0 0 0 3 4 0 0
0 0 0 0 0 0 0 0 0 0 0 0 0 49 0 0 0 5 5 0 5 14 25 81 2 3 3 7 2 0 0 0 0 0 0 0 0 0 0 0 0 0 0 0
0 0 0 0 0 0 0 0 0 0 0 0 0 0 0 0 0 5 5 5 5 10 81 4 5 3 52 3 5 0 0 0 0 0 0 0 0 0 0 0 0 0 0 0
27 0 0 0 0 0 0 0 0 0 0 0 0 0 0 0 0 4 54 6 0 5 38 45 30 39 100 8 99 5 19 24 0 0 0 0 0 0 0 0 0 0 0 0
2 4 0 0 0 0 0 0 0 0 0 0 0 0 0 0 0 0 5 1 1 5 53 15 13 100 100 91 8 86 99 3 0 0 0 0 0 0 0 0 0 0 0 0
0 3 0 0 0 0 0 0 0 0 0 0 0 0 0 0 0 0 0 0 4 2 57 3 6 5 34 97 97 32 96 92 5 93 1 0 0 0 0 0 0 0 0 0
3 42 12 3 0 0 4 0 0 0 0 0 0 0 0 0 0 0 0 0 5 3 5 4 50 57 5 1 98 100 100 100 13 5 85 0 0 0 0 0 0 0 0 0
5 80 67 0 0 18 5 4 0 0 68 4 0 0 0 0 0 0 0 2 0 12 41 8 25 17 5 0 0 59 100 100 21 67 52 50 3 0 0 0 0 0 0 0
3 96 57 8 1 59 3 4 1 3 48 5 0 0 0 0 0 0 0 5 32 72 98 16 5 0 0 0 0 0 3 56 30 100 41 29 5 0 0 0 0 0 0 0
2 76 7 5 5 26 5 5 5 5 5 5 0 0 0 3 0 0 0 0 14 38 11 61 82 5 0 0 0 0 0 5 6 16 19 0 0 0 0 0 0 0 0 0
93 9 25 100 8 4 12 0 86 5 5 5 0 0 0 0 0 0 0 0 0 0 0 37 100 41 85 4 0 0 0 0 0 0 0 0 0 0 0 0 0 0 0 0
100 100 74 66 5 2 5 1 5 5 0 0 0 0 0 0 0 0 0 0 0 0 0 5 13 1 89 4 0 0 0 0 0 0 0 0 0 0 0 0 0 0 0 0
94 100 100 76 72 40 4 74 12 14 1 0 0 0 0 0 0 0 0 0 0 7 0 6 7 0 1 0 0 0 2 0 0 0 0 0 0 0 0 0 0 0 0 0
3 100 100 100 98 78 95 87 66 53 5 0 0 0 0 0 0 0 41 2 54 90 36 0 5 1 76 0 0 61 5 0 0 0 0 0 0 0 0 0 0 0 15 31
100 100 100 100 100 100 100 14 57 5 6 0 1 0 0 0 2 86 100 74 95 98 81 0 0 0 0 2 1 0 5 3 0 0 0 0 0 0 0 0 0 0 0 8
100 100 100 100 100 100 66 47 5 100 32 50 1 0 0 0 20 99 100 100 100 42 16 45 24 85 4 40 6 0 5 0 0 0 0 0 0 0 1 4 5 5 5 1
100 100 100 100 100 100 100 98 69 91 90 89 70 5 0 10 100 100 100 100 42 5 5 5 30 98 8 85 5 0 3 17 2 0 0 0 1 5 7 10 100 83 5 10
100 100 100 100 100 100 100 93 40 92 100 100 70 55 10 33 100 100 100 100 86 77 90 100 99 86 70 62 3 2 33 4 5 5 0 0 3 5 79 98 98 99 80 5
100 100 100 100 100 100 100 100 91 23 82 100 96 100 84 83 34 51 81 93 100 74 84 100 100 100 97 19 9 40 11 16 5 5 98 4 5 5 21 81 54 31 55 58
100 100 100 100 100 100 100 100 93 91 22 59 100 100 100 100 71 30 25 31 71 84 57 43 68 100 100 81 22 31 73 11 90 5 72 73 4 15 5 25 77 99 85 21
100 100 100 100 100 100 100 100 100 100 97 87 100 100 100 100 100 40 0 1 26 44 55 13 5 5 37 34 5 4 22 21 25 9 96 89 100 21 17 98 100 100 97 100

GFSCGP_prec_cloud_063.txt.gz
Cloud_Cover
0 0 0 0 0 0 0 0 0 0 0 4 0 5 5 40 24 1 0 5 5 50 5 0 2 0 0 0 0 0 0 0 0 11 5 1 0 0 0 0 0 0 0 0
0 0 0 0 0 0 0 0 0 0 37 41 12 3 5 2 43 54 10 22 64 57 5 3 0 0 0 0 0 0 0 0 2 61 28 14 0 0 0 0 0 0 0 0
0 0 0 0 0 0 0 0 0 0 1 6 58 5 5 0 5 3 4 8 94 11 1 24 0 5 0 0 0 0 0 0 0 4 2 12 0 0 0 2 0 0 0 0
0 0 0 0 0 0 0 0 0 0 0 37 75 27 5 0 1 5 5 4 7 5 0 14 0 35 4 0 0 0 0 0 0 0 0 1 5 0 0 0 0 0 0 0
0 0 0 0 0 0 0 0 0 0 0 5 18 30 4 0 0 0 0 5 1 4 5 5 0 2 3 0 0 0 0 0 0 0 0 0 0 0 0 0 0 5 0 0
0 0 0 0 0 0 0 0 0 0 0 0 0 2 0 0 0 0 0 5 4 0 5 17 48 0 0 1 0 0 0 0 0 0 0 0 3 0 0 0 0 5 4 0
0 0 0 0 0 0 0 0 0 0 0 0 0 0 0 0 0 0 0 23 5 5 8 99 5 1 5 5 2 0 0 0 0 0 0 0 0 0 0 0 0 5 2 0
0 0 0 0 0 0 0 0 0 0 0 0 0 0 0 0 0 0 0 5 5 5 7 11 3 5 0 2 5 0 2 0 0 0 0 0 0 0 0 0 0 0 0 0
0 0 0 0 0 0 0 0 0 0 0 0 0 0 0 0 0 0 1 5 14 7 6 26 5 0 0 5 0 5 0 3 0 0 0 0 0 0 0 0 0 0 0 0
0 0 0 0 0 0 0 0 0 0 0 0 0 0 0 0 0 0 5 5 5 100 10 5 5 0 5 1 14 58 5 5 0 4 0 0 0 0 0 0 0 0 0 0
0 0 0 0 0 0 0 0 0 0 0 0 0 0 0 0 0 0 5 5 5 62 100 3 5 0 0 5 3 1 31 3 4 0 34 5 0 0 0 0 0 0 0 0
0 2 0 0 0 0 0 0 0 0 0 0 0 0 0 0 0 0 5 5 5 98 100 47 5 5 5 4 1 1 1 66 5 0 12 10 33 0 0 0 0 0 0 0
3 5 0 0 0 0 0 12 0 0 0 26 15 0 0 0 0 0 3 5 5 6 69 100 7 0 5 0 0 2 4 5 92 23 5 40 6 2 0 0 0 0 0 0
0 8 0 0 0 0 4 6 2 0 0 0 24 4 0 0 0 0 0 5 5 5 10 100 79 5 5 2 0 0 0 4 6 100 96 68 5 5 40 1 0 0 0 0
91 7 0 0 0 0 0 2 5 2 0 0 0 0 0 0 0 0 0 0 5 8 22 91 89 2 5 0 0 0 0 0 4 16 97 97 5 5 5 1 0 0 0 0
100 59 29 0 0 0 0 0 5 5 0 0 0 0 0 0 0 0 0 0 4 5 5 5 5 14 5 1 0 0 0 0 0 0 0 8 12 14 3 0 0 0 0 0
100 60 9 0 0 41 2 0 0 5 0 0 0 0 0 0 0 0 0 0 0 0 3 5 31 55 5 3 0 0 0 0 0 0 0 0 4 5 2 0 0 0 0 0
61 100 68 1 1 12 0 0 0 16 1 0 0 0 0 0 0 0 0 0 0 1 2 5 60 28 43 3 4 3 0 0 0 0 0 0 0 0 0 0 0 0 0 0
5 56 5 64 84 22 92 4 0 4 2 0 0 0 3 0 0 0 0 0 6 12 4 20 26 5 10 61 70 99 0 0 0 0 0 0 0 0 0 0 0 0 0 0
48 86 38 100 100 100 100 70 20 81 12 0 0 0 5 0 0 0 0 15 44 72 61 16 0 37 62 58 88 5 96 8 1 0 0 0 0 0 0 0 0 0 0 0
100 100 100 100 100 92 100 100 100 100 31 41 7 0 0 0 0 28 70 100 100 98 57 7 0 0 95 20 0 5 65 5 6 0 0 0 0 0 0 0 0 0 0 0
100 100 100 100 99 99 100 100 100 99 90 100 76 0 0 37 81 93 100 100 100 71 11 69 16 0 19 40 64 5 37 44 26 0 0 0 0 0 0 0 0 0 0 0
100 100 100 100 100 100 100 100 100 100 100 100 100 76 90 100 100 100 100 100 100 100 98 48 14 22 68 19 9 5 6 12 6 0 0 0 0 0 0 0 0 8 17 5
100 100 100 100 100 100 100 100 100 100 100 100 100 100 100 100 100 100 100 100 100 100 100 98 5 84 95 70 10 82 74 2 19 2 0 0 0 0 0 0 0 4 5 5
100 100 100 100 100 100 100 100 100 100 100 100 100 100 100 100 100 100 100 100 100 100 100 100 100 80 89 61 37 78 100 88 24 2 5 4 0 1 0 0 5 31 9 33
100 100 100 100 100 100 100 100 100 100 100 100 100 100 100 100 100 100 100 100 100 100 100 100 100 100 100 100 86 48 21 3 40 66 79 82 67 18 3 80 100 99 90 100

GFSCGP_prec_cloud_069.txt.gz
Cloud_Cover
0 0 0 0 0 0 0 0 0 0 0 0 0 95 84 76 23 34 0 0 0 26 21 23 28 13 11 0 0 0 0 0 0 0 0 0 11 4 100 65 34 0 66 5
0 0 0 0 0 0 0 0 0 0 0 0 4 2 86 84 2 22 0 0 0 12 53 4 8 14 4 0 0 0 0 0 0 0 0 0 0 18 78 32 0 0 0 3
0 0 0 0 0 0 0 0 0 0 0 0 1 15 89 90 3 4 0 0 6 0 5 19 12 6 1 0 0 0 0 0 0 0 0 0 0 63 18 66 5 0 20 21
0 0 0 0 0 0 0 0 0 0 0 0 0 0 37 28 95 0 3 3 0 0 2 1 23 3 0 0 0 0 0 0 0 0 0 0 0 4 18 3 1 0 0 33
0 0 0 0 0 0 0 0 0 0 0 0 0 0 5 3 66 18 5 3 0 0 0 0 0 0 0 0 0 0 0 0 0 0 0 0 0 0 1 12 0 0 0 0
0 1 0 0 0 0 0 0 0 0 0 0 0 0 0 96 25 68 57 17 4 0 0 0 0 0 3 7 18 3 0 0 2 1 1 0 0 0 1 0 1 0 0 0
0 0 0 0 0 0 0 0 0 0 0 0 0 0 0 5 100 84 46 4 26 5 0 3 0 0 0 2 0 2 0 0 1 42 5 0 0 0 0 3 0 0 0 0
0 0 0 0 0 0 0 0 0 0 0 0 0 0 0 1 12 33 100 61 5 5 2 5 4 2 0 0 0 0 0 0 0 0 3 4 1 0 0 0 0 0 0 0
0 0 3 0 0 0 1 21 0 2 3 0 0 0 0 0 1 5 98 99 100 16 5 4 5 3 2 5 0 0 0 0 0 0 0 0 0 0 0 0 0 0 0 0
0 0 0 0 0 0 8 77 2 2 26 4 2 2 0 0 0 2 6 59 94 92 2 3 4 5 5 1 0 0 0 0 0 0 0 0 0 0 0 1 2 0 0 0
0 0 0 0 0 0 0 0 94 78 3 5 3 5 33 1 0 0 0 0 1 90 30 4 0 5 5 5 0 0 0 0 0 0 0 0 0 0 0 2 5 0 0 0
2 0 0 0 0 0 0 42 2 99 83 5 21 54 100 40 2 0 0 0 0 1 62 28 0 5 5 5 5 0 0 0 0 0 0 0 0 0 0 0 0 0 0 0
71 34 0 0 0 0 0 0 0 5 98 98 10 3 71 94 40 5 0 0 0 4 5 83 53 0 0 5 5 0 0 0 3 0 0 0 0 0 0 0 0 0 0 0
17 86 92 30 88 73 2 0 89 77 92 56 100 97 100 84 90 5 0 0 0 5 11 16 81 6 0 4 5 5 1 0 5 0 0 0 0 0 0 0 0 0 0 0
79 100 99 94 93 12 0 2 4 11 9 100 100 100 100 100 84 12 2 3 0 2 5 52 91 100 10 0 5 5 0 0 0 2 2 0 0 0 0 0 0 0 0 0
100 99 100 100 88 84 5 0 0 0 0 5 2 45 48 100 100 100 5 4 10 0 0 2 0 5 5 0 4 2 2 0 0 5 10 1 5 5 0 3 3 0 0 0
100 96 99 100 100 100 98 1 0 0 0 0 0 0 5 31 100 100 86 3 2 0 0 0 0 5 5 5 5 0 0 5 0 14 85 1 0 1 5 73 59 5 4 0
100 100 100 98 100 98 43 10 2 1 0 0 0 0 5 2 100 100 99 0 0 0 0 0 0 10 5 60 5 1 0 0 1 0 0 0 0 0 0 1 47 85 50 30
100 100 100 100 100 90 99 100 92 0 0 0 0 0 0 0 8 10 28 2 0 0 0 0 0 83 79 80 22 1 0 0 0 0 0 0 0 0 0 0 4 5 9 71
100 100 100 100 100 100 100 99 4 0 0 0 0 0 0 0 0 0 1 0 0 0 0 0 0 94 100 97 75 1 0 0 0 0 0 0 0 0 0 0 0 0 0 0
74 100 72 45 100 100 22 99 2 0 12 0 2 100 100 59 1 81 0 0 0 0 0 0 0 34 100 100 88 2 2 1 4 5 0 0 0 0 0 0 0 0 0 0
100 95 87 50 100 80 99 4 1 2 0 40 82 10 8 63 42 11 35 0 0 0 0 0 0 14 100 98 85 100 0 5 13 5 0 0 0 0 0 0 0 0 0 0
100 100 100 100 99 42 70 67 32 50 35 100 100 87 6 79 96 98 2 0 0 0 0 9 68 21 0 5 6 81 0 14 5 5 5 1 0 0 0 0 0 0 0 0
100 100 100 100 100 100 100 76 20 37 90 100 100 100 91 100 100 25 90 67 18 67 10 0 30 2 4 14 10 15 1 52 92 100 54 5 5 0 0 3 17 0 0 0
100 100 100 100 100 100 100 100 100 100 100 100 100 100 100 100 93 100 41 64 36 52 98 95 82 69 84 99 78 54 70 56 5 95 40 22 6 1 0 0 0 0 0 6
100 100 100 100 100 100 100 100 100 100 100 100 100 100 100 100 100 100 98 96 100 98 46 74 87 100 100 100 100 100 100 99 69 100 99 84 13 21 2 0 0 87 38 99

GFSCGP_prec_cloud_072.txt.gz
Cloud_Cover
0 0 0 0 0 0 0 0 0 0 0 1 46 95 4 100 100 100 100 1 16 71 4 56 68 42 3 0 0 0 1 0 0 0 0 0 6 88 20 99 21 100 95 100
0 0 0 0 0 0 0 0 0 0 0 0 14 32 29 100 100 100 93 79 3 83 42 0 0 87 20 0 0 0 0 0 0 0 0 0 11 0 0 77 64 0 34 99
0 0 0 0 0 0 0 0 0 0 0 0 2 62 95 100 100 100 81 4 0 56 29 0 0 3 4 0 0 0 0 0 0 0 0 0 0 11 84 14 0 0 0 42
0 0 0 0 0 0 0 0 0 0 0 0 0 1 0 100 100 100 100 3 3 6 0 10 0 0 0 0 0 0 0 0 0 0 0 0 0 54 2 1 59 0 1 0
0 0 0 0 0 0 0 0 0 0 0 0 0 0 0 2 100 86 100 85 4 0 0 0 0 0 0 0 0 0 0 0 0 0 0 0 0 2 100 7 65 0 0 2
0 0 0 0 0 0 0 0 0 0 0 0 0 0 0 1 0 96 100 100 37 13 0 0 0 0 0 0 0 0 0 0 0 0 0 0 0 0 26 5 100 0 0 0
0 0 0 1 0 0 0 0 0 0 0 0 0 0 0 0 5 39 100 100 79 1 0 0 0 0 0 0 0 0 0 0 0 0 0 0 0 0 0 0 59 0 0 0
0 0 0 0 0 0 0 0 0 0 0 0 0 0 0 0 0 41 100 98 100 93 0 0 0 0 0 0 0 0 0 0 0 0 1 0 0 0 0 0 0 7 0 0
0 0 4 0 0 0 0 21 0 1 0 0 0 0 0 0 0 1 64 6 99 100 8 0 0 0 0 0 0 0 0 0 0 0 0 0 0 0 0 0 0 0 0 43
0 0 0 0 1 2 2 0 33 2 4 3 0 0 0 0 0 0 8 35 4 100 100 29 0 0 0 0 0 0 0 0 0 0 0 0 0 0 0 0 0 0 0 6
0 0 0 0 2 3 4 0 12 100 70 1 3 0 0 0 0 0 0 0 3 29 100 75 2 9 0 0 0 0 0 0 0 0 0 0 0 1 0 0 0 0 0 0
80 3 0 0 0 9 5 5 0 99 39 44 0 15 39 24 11 0 0 0 4 94 100 74 91 60 61 0 0 0 0 0 0 0 0 0 0 0 0 0 0 0 1 1
88 22 10 0 0 0 0 0 0 3 19 96 17 0 0 93 100 40 3 0 0 30 75 100 100 100 100 19 0 0 0 4 0 0 0 0 0 0 0 0 0 0 0 0
8 6 44 65 18 36 67 3 4 1 3 28 26 25 99 99 100 100 56 26 0 0 81 100 100 100 99 1 0 0 0 5 0 5 4 0 0 0 0 0 0 0 0 0
100 98 7 5 5 100 6 2 2 3 2 3 66 76 100 97 80 70 100 75 0 0 9 2 72 100 100 97 0 0 0 5 0 0 5 1 0 0 0 0 0 0 0 0
49 5 41 85 5 98 47 2 0 0 2 5 6 88 95 89 84 45 23 14 70 0 56 95 100 98 97 74 4 0 0 2 0 0 5 5 0 0 0 2 0 0 0 0
99 74 65 47 100 47 100 25 4 0 0 0 2 0 100 100 100 100 100 21 3 5 5 5 5 58 86 78 51 6 0 5 0 0 0 3 0 2 11 17 21 10 6 2
98 100 100 100 100 100 0 72 5 2 0 0 0 0 96 100 56 94 100 8 69 31 2 0 0 5 5 41 90 60 3 5 2 0 0 0 4 3 7 21 29 5 8 5
77 100 100 100 100 74 97 94 100 99 69 15 0 0 0 99 95 96 54 100 98 48 5 0 0 5 3 2 2 35 0 2 3 0 0 0 0 1 5 0 1 0 0 1
100 99 97 100 100 100 94 100 64 22 3 2 0 0 0 3 100 8 100 100 12 5 0 0 0 0 0 0 0 0 0 0 5 4 0 0 0 0 0 0 0 0 0 0
100 100 71 98 100 99 98 88 96 87 6 5 0 0 0 13 2 100 100 73 5 4 0 0 0 0 7 69 0 0 0 5 55 5 0 0 0 0 0 0 0 0 0 0
100 100 100 79 100 73 90 60 59 88 9 3 0 0 0 9 0 45 20 0 17 3 0 0 2 4 0 0 0 2 0 93 99 5 2 0 0 0 2 0 0 0 0 0
100 100 100 100 99 95 20 15 5 52 44 0 0 0 1 1 83 65 59 3 2 5 0 0 0 0 0 0 14 2 15 32 85 5 0 4 0 0 12 0 0 0 0 0
100 100 100 100 100 97 90 5 1 8 16 0 0 0 9 19 52 65 18 52 14 0 10 6 4 6 4 1 16 0 94 100 17 5 2 4 0 6 0 0 0 0 0 0
100 100 100 100 100 100 99 71 100 19 60 12 31 0 99 100 100 49 30 0 0 30 35 66 38 50 33 50 70 23 8 99 91 43 3 5 4 5 2 2 0 0 0 0
100 100 100 100 100 100 100 100 100 100 100 52 5 26 100 93 100 95 75 28 98 95 100 100 94 82 37 91 100 98 5 46 45 52 93 53 5 56 16 4 43 91 6 12

GFSCGP_prec_cloud_075.txt.gz
Cloud_Cover
0 0 0 0 0 0 0 0 0 0 0 0 0 1 2 12 87 100 100 100 89 4 0 4 30 100 43 0 0 0 0 0 0 0 0 0 1 9 18 8 41 5 53 7
0 0 0 0 0 0 0 0 0 0 0 0 0 0 0 1 0 38 100 100 69 64 34 6 100 96 0 0 0 0 0 0 0 0 0 0 0 8 1 41 2 42 6 10
0 0 0 0 0 0 0 0 0 0 0 0 0 0 0 0 5 100 100 100 85 100 6 0 80 100 31 0 0 0 0 0 0 0 0 0 0 0 0 0 69 22 100 25
0 0 0 0 0 0 0 0 0 0 0 0 0 0 0 0 32 100 100 100 100 94 1 61 2 3 2 0 0 0 0 0 0 0 0 0 0 0 40 0 0 0 0 7
0 0 0 0 0 0 0 0 0 0 0 0 0 0 0 12 94 96 100 100 100 100 92 2 15 0 0 0 0 0 0 0 0 0 0 0 0 0 0 0 0 0 0 0
0 0 0 0 0 0 0 0 0 0 0 0 0 0 0 13 100 19 86 100 100 100 100 100 0 0 0 0 0 0 0 0 0 0 0 0 0 0 0 0 0 0 0 0
0 0 0 0 0 0 0 0 0 0 0 0 0 0 0 0 100 100 100 100 100 100 100 92 0 0 0 0 0 0 0 0 0 0 0 0 0 0 0 81 1 7 0 0
0 0 0 0 0 0 0 0 0 0 0 0 0 0 0 0 56 98 93 100 100 100 100 5 0 0 0 0 0 0 0 0 0 0 0 0 0 0 0 0 0 10 0 0
0 0 0 0 0 0 0 0 0 0 0 0 0 0 0 0 0 85 77 100 100 100 100 16 2 0 0 0 0 0 0 0 0 0 0 0 0 0 0 0 0 0 0 0
0 0 0 0 0 0 0 0 0 0 0 0 0 0 0 0 0 0 14 100 100 100 76 71 85 58 64 4 0 0 0 0 0 0 0 0 0 0 0 0 0 0 0 0
0 0 0 0 0 0 0 0 0 1 0 0 0 0 0 0 0 0 25 98 100 5 5 55 94 100 100 69 5 2 0 0 0 0 0 0 0 0 0 0 0 0 0 0
0 0 0 0 0 0 0 0 0 0 0 4 4 0 0 0 4 4 0 78 100 6 1 99 100 100 100 100 75 0 0 0 0 0 0 0 0 0 0 0 0 0 0 0
0 0 0 0 0 0 0 0 4 2 0 0 1 0 2 4 100 14 0 87 100 98 85 100 100 100 100 100 90 0 0 0 0 0 0 0 0 0 0 0 0 0 0 0
0 0 0 0 0 0 5 0 0 4 0 0 16 15 4 14 100 78 33 88 41 79 100 100 100 100 100 100 100 6 10 3 2 0 0 0 0 0 0 0 0 0 0 0
3 0 0 0 0 0 0 0 0 0 0 0 0 100 2 100 100 97 100 100 77 5 83 100 100 100 100 100 100 26 87 24 2 5 0 0 0 0 0 0 0 0 0 0
5 5 5 0 0 0 5 0 0 0 0 0 0 59 10 7 76 100 100 82 53 4 100 100 80 100 100 100 100 100 100 93 54 5 2 0 0 0 0 0 0 0 0 0
5 2 5 1 10 5 1 5 0 0 0 0 0 22 100 2 87 74 99 88 88 56 9 100 5 55 100 99 100 100 100 98 100 2 5 0 0 0 0 0 0 0 0 0
42 26 5 68 100 100 0 11 98 2 0 0 0 0 55 4 73 100 88 94 52 55 3 2 60 80 100 100 100 100 100 100 92 5 5 0 0 0 0 0 0 0 0 0
100 100 86 81 100 92 84 96 100 100 0 3 0 2 0 0 62 100 21 98 78 5 1 0 0 97 100 94 75 100 100 100 100 100 5 2 0 0 0 0 0 0 0 0
100 99 100 78 100 82 99 96 100 100 17 89 0 0 0 0 10 100 86 100 30 5 2 0 0 95 100 100 38 2 73 100 100 100 100 3 0 0 0 0 0 0 0 0
100 100 90 100 96 74 100 100 100 96 51 100 14 0 0 0 16 100 100 100 100 95 5 0 0 0 70 73 100 58 5 100 100 100 100 10 0 0 0 0 0 0 0 0
95 100 100 100 100 79 45 52 100 71 5 5 1 0 0 0 0 88 100 100 100 100 30 13 4 0 0 39 98 100 80 100 100 100 100 38 4 0 1 0 0 0 0 0
100 100 100 100 100 100 38 34 33 19 5 5 0 1 0 0 0 0 100 100 100 100 100 100 35 3 0 0 0 85 46 5 46 100 80 5 62 5 0 0 0 0 0 0
100 100 100 100 100 100 100 100 94 100 100 100 27 0 40 0 0 0 2 100 100 100 100 94 100 90 6 0 0 1 0 0 18 9 100 100 6 5 4 0 0 0 0 15
100 100 100 100 100 98 67 88 100 100 100 97 30 91 52 2 0 0 0 1 100 74 100 100 32 69 28 0 0 0 3 38 23 0 76 100 98 8 3 1 0 0 0 3
99 100 100 100 100 100 100 100 100 100 100 100 18 100 96 1 0 0 0 2 84 100 18 12 100 100 95 0 0 9 21 36 49 0 48 98 16 18 5 4 1 72 29 1

GFSCGP_prec_cloud_078.txt.gz
Cloud_Cover
0 0 0 0 0 0 0 0 0 0 0 5 5 4 0 27 100 25 100 51 100 100 100 80 99 100 0 24 0 0 0 0 0 0 0 0 0 0 5 5 5 11 11 0
0 0 0 0 0 0 0 0 0 0 0 0 3 4 1 0 10 3 100 100 98 100 100 45 80 100 0 0 0 0 0 0 0 0 0 0 0 0 0 4 5 5 4 4
0 0 0 0 0 0 0 0 0 0 0 0 0 82 100 8 0 0 100 100 97 99 100 79 9 61 0 0 0 0 0 0 0 0 0 0 0 0 0 16 6 17 4 5
0 0 0 0 0 0 0 0 0 0 0 0 0 1 100 43 54 0 33 100 100 100 100 79 4 0 0 0 0 0 0 0 0 0 0 0 0 0 0 0 0 14 5 7
0 0 0 0 0 0 0 0 0 0 0 0 0 0 0 21 25 0 0 28 100 100 100 44 2 0 0 0 0 0 0 0 0 0 0 0 0 0 0 0 0 0 0 1
0 0 0 0 0 0 0 0 0 0 0 0 0 0 0 9 0 0 0 57 100 100 100 100 24 25 0 0 0 0 0 0 0 0 0 0 0 0 0 0 0 0 0 0
0 0 0 0 0 0 0 0 0 0 0 0 0 0 0 0 0 0 0 97 100 100 100 100 100 100 46 0 0 0 0 0 0 0 0 0 0 0 0 0 0 0 0 0
0 0 0 0 0 0 0 0 0 0 0 0 0 0 0 0 0 0 0 100 100 100 99 100 71 100 81 0 0 0 0 0 0 0 0 0 0 0 0 0 0 0 0 0
0 0 0 0 0 0 0 0 0 0 0 0 0 0 0 0 0 0 4 91 100 100 100 99 100 97 12 0 0 0 0 0 0 0 0 0 0 0 0 0 0 0 0 0
0 0 0 0 0 0 0 0 0 0 0 0 0 0 0 0 0 0 42 65 97 100 56 95 100 100 46 0 0 1 0 0 0 0 0 0 0 0 0 0 0 0 0 0
0 0 0 0 0 0 0 0 0 0 0 0 0 0 0 0 0 0 38 100 100 100 91 81 84 67 97 14 18 3 2 0 0 0 0 0 0 0 0 0 0 0 0 0
0 0 0 0 0 0 0 0 0 0 0 0 0 0 0 0 0 0 0 100 100 100 100 100 100 100 100 100 100 64 46 0 0 0 0 0 0 0 0 0 0 0 0 0
0 0 0 0 0 0 0 0 0 0 0 0 0 0 0 0 1 1 0 13 13 100 100 100 100 100 100 100 70 8 100 43 0 0 0 0 0 0 0 0 0 0 0 0
0 0 0 0 0 0 0 0 0 0 0 0 0 0 0 0 0 64 5 0 1 0 19 100 100 100 100 100 95 98 100 100 5 57 4 0 0 0 0 0 0 0 0 0
5 4 0 0 0 0 0 0 2 2 0 0 0 0 0 0 1 7 5 4 94 63 0 100 100 95 100 100 100 99 100 100 100 100 90 0 0 0 0 0 0 0 4 4
0 0 0 0 0 0 0 0 0 5 18 4 0 0 0 0 1 7 5 5 1 1 6 47 100 100 100 100 100 100 100 100 100 100 100 16 0 0 0 0 0 0 0 0
0 0 0 1 0 0 0 0 0 2 66 100 12 0 0 0 0 71 27 60 35 5 6 1 22 100 100 100 100 100 93 100 100 100 100 50 3 0 0 0 0 0 0 0
0 0 2 4 3 4 0 0 0 0 100 88 5 0 0 0 0 89 77 100 98 100 100 37 25 100 100 100 100 100 94 100 100 100 100 93 90 2 0 0 0 0 0 0
5 5 5 4 5 0 0 0 11 70 98 99 6 0 0 0 0 66 97 97 73 100 54 20 7 82 100 100 100 100 100 100 100 100 100 100 82 92 0 0 0 0 0 0
5 8 4 5 73 25 7 33 45 11 100 96 6 0 0 0 2 0 60 100 100 98 100 91 100 18 100 100 100 100 100 100 100 100 96 85 100 100 35 0 0 0 0 0
99 100 100 76 96 81 97 19 14 68 53 100 45 5 0 0 0 0 0 100 100 100 100 100 79 100 100 100 100 100 100 100 100 100 94 100 100 100 100 91 98 0 0 0
100 95 100 100 99 90 65 17 60 73 97 73 100 52 5 3 0 0 0 26 100 100 82 100 47 100 100 97 100 100 100 100 100 100 99 100 100 100 100 100 89 13 0 0
100 100 100 87 31 98 80 92 90 65 97 46 98 100 100 89 2 0 0 0 97 100 100 100 99 100 91 57 93 100 100 96 100 100 100 100 100 100 100 100 82 0 0 0
100 100 100 100 89 98 97 99 99 100 100 100 100 100 100 39 31 5 0 0 18 100 100 82 100 100 97 100 100 98 13 50 79 68 100 100 100 100 100 100 6 3 0 0
48 85 99 85 99 98 100 100 100 100 100 100 100 100 100 100 77 96 3 0 0 96 100 100 86 100 100 100 85 100 95 64 100 100 94 100 100 100 100 100 30 36 3 0
100 66 93 10 99 94 96 100 100 100 100 100 100 100 100 100 28 43 70 0 2 0 91 99 83 100 99 99 100 95 84 78 39 100 89 96 77 89 100 100 100 100 50 0

GFSCGP_prec_cloud_084.txt.gz
Cloud_Cover
0 0 0 0 0 0 0 0 2 10 3 0 0 0 0 61 50 100 99 93 19 5 9 7 6 3 3 1 6 0 0 0 0 0 0 0 0 0 5 5 3 0 0 0
0 0 0 0 0 0 0 0 0 100 40 4 0 0 0 77 49 100 100 9 8 20 5 47 79 5 5 0 0 0 0 0 0 0 0 0 0 0 3 5 6 1 0 0
0 0 0 0 0 0 0 0 0 55 99 5 5 0 22 1 0 94 43 74 41 24 16 4 97 52 81 0 0 0 0 0 0 0 0 0 0 0 8 1 5 5 0 0
0 0 0 0 0 0 0 0 0 1 20 43 3 0 0 0 0 67 1 32 5 5 15 0 6 62 23 60 0 0 0 0 0 0 0 0 0 0 0 0 4 4 0 0
0 0 0 0 0 0 0 0 0 0 0 3 0 0 0 0 0 0 0 0 67 2 2 2 5 34 100 31 0 0 0 0 0 0 0 0 0 0 0 0 0 0 0 0
0 0 0 0 0 0 0 0 0 0 0 0 0 0 0 8 0 0 0 1 10 5 4 3 5 16 7 22 0 1 0 0 0 0 0 0 0 0 0 0 0 0 0 0
0 0 0 0 0 0 0 0 0 0 0 0 0 0 0 0 0 0 0 0 2 5 2 51 0 5 43 4 4 6 0 0 0 0 0 0 0 0 0 0 0 0 0 0
0 0 0 0 0 0 0 0 0 0 0 0 0 0 0 0 0 0 0 0 0 5 0 58 26 2 5 9 1 4 0 0 0 0 0 0 0 0 0 0 0 0 0 0
0 0 0 0 0 0 0 0 0 0 0 0 0 0 0 0 0 0 0 0 0 0 4 6 86 45 5 4 5 6 0 0 0 0 0 0 0 0 0 0 0 0 0 0
0 0 0 0 0 0 0 0 0 0 0 0 0 0 0 0 0 0 0 0 0 0 0 69 43 82 97 75 44 5 38 0 0 0 0 0 0 0 0 0 0 0 0 0
19 0 0 0 0 0 0 0 0 0 0 0 0 0 0 0 0 0 0 0 0 0 0 10 82 5 80 50 100 31 92 5 0 0 0 0 0 0 0 0 0 0 0 0
100 34 0 0 0 0 0 0 0 0 0 0 0 0 0 0 0 0 0 0 0 0 0 2 82 92 3 98 52 97 8 14 0 0 0 0 0 0 0 0 0 0 0 0
100 100 49 0 0 0 0 0 0 0 0 0 0 0 0 0 0 0 32 30 28 2 0 1 2 98 98 76 39 93 100 94 2 0 0 0 0 0 0 0 0 0 0 0
100 100 80 5 3 0 0 0 0 0 0 0 0 0 0 0 0 0 5 55 7 54 48 11 0 0 100 77 99 58 100 84 78 16 58 0 0 0 0 0 0 0 0 1
100 100 100 54 5 5 4 2 0 0 0 0 0 0 0 0 0 0 0 19 10 0 40 83 100 91 32 100 100 100 100 93 90 7 100 21 14 14 1 0 0 0 0 0
100 100 100 100 39 5 5 0 0 0 0 0 0 0 0 0 0 0 0 0 34 81 100 94 100 100 100 100 100 100 100 100 100 12 91 85 39 97 100 8 0 0 0 0
100 100 100 100 100 16 5 0 0 0 0 0 0 0 0 0 0 0 0 42 100 100 100 100 78 100 100 100 100 100 100 100 100 100 100 97 46 91 64 100 100 83 3 0
100 100 100 100 100 41 5 0 0 0 0 0 0 0 0 0 0 0 41 8 95 100 100 100 100 97 100 100 88 100 99 100 100 100 100 88 98 100 90 47 100 87 80 77
100 36 86 100 100 100 73 5 2 59 0 6 0 0 0 0 0 10 41 15 54 99 100 99 37 55 100 100 100 100 94 100 98 94 92 83 100 100 100 100 100 98 100 86
62 84 13 5 35 61 10 5 5 5 46 4 0 0 0 1 0 0 91 96 84 98 100 39 30 2 7 100 100 100 100 100 74 100 100 100 100 100 96 100 88 98 100 97
14 9 39 30 8 4 2 3 5 8 4 0 0 0 22 76 2 0 58 100 97 22 83 99 21 1 3 73 100 100 100 100 100 100 100 100 100 100 100 100 99 100 100 100
6 26 62 39 51 49 1 0 1 0 0 0 0 4 5 7 3 0 4 16 91 96 16 62 40 0 5 5 92 100 100 100 100 100 93 88 93 95 82 92 100 100 100 97
7 5 12 5 4 0 0 0 0 0 4 10 28 86 98 29 2 0 0 5 75 33 60 50 48 4 0 5 71 100 22 94 100 100 99 92 98 98 89 99 100 100 100 100
5 7 30 4 0 0 0 0 0 4 5 100 100 100 100 100 100 51 9 0 79 30 12 9 0 0 0 1 99 100 100 100 100 100 100 100 100 90 100 100 90 99 100 100
2 24 48 18 1 0 0 0 2 5 99 100 100 100 99 100 100 99 90 48 0 56 56 36 0 0 11 0 40 100 100 99 89 93 96 100 100 100 100 100 100 100 98 96
8 6 9 6 0 2 0 0 2 5 5 96 100 100 100 100 100 100 100 100 98 100 100 100 5 0 20 1 6 94 100 97 100 98 10 52 100 100 100 100 100 100 100 100

GFSCGP_prec_cloud_087.txt.gz
Cloud_Cover
0 0 0 0 0 0 0 0 0 14 0 3 0 1 5 58 50 91 100 90 91 77 0 0 4 0 1 16 0 0 0 0 0 0 0 0 0 0 5 5 3 0 3 1
0 0 0 0 0 0 0 0 0 0 5 4 0 0 4 24 97 100 68 97 7 4 3 41 0 0 1 80 9 0 0 0 0 0 0 0 0 0 28 23 0 0 0 0
0 0 0 0 0 0 0 0 0 1 4 5 3 0 0 10 67 70 78 5 5 2 12 4 0 0 5 49 50 0 0 0 0 0 0 0 0 0 5 8 2 0 0 0
0 0 0 0 0 0 0 0 0 0 2 3 0 0 0 2 15 13 36 84 5 5 5 5 0 0 0 5 90 6 10 0 0 0 0 0 0 0 0 0 2 0 0 1
0 0 0 0 0 0 0 0 0 0 2 4 0 0 0 0 0 0 22 6 72 8 1 4 0 1 0 5 6 0 3 17 0 0 0 0 0 0 0 0 0 0 0 0
0 0 0 0 0 0 0 0 0 0 0 0 0 0 0 0 0 0 0 1 5 60 5 1 4 2 1 5 3 15 27 0 3 0 0 0 0 0 0 0 0 0 0 0
0 0 0 0 0 0 0 0 0 0 0 0 0 0 0 0 0 0 0 0 0 37 5 0 5 0 0 0 0 3 23 6 0 0 0 0 0 0 0 0 0 0 0 0
0 0 0 0 0 0 0 0 0 0 0 0 0 0 0 0 0 0 0 0 0 70 66 36 16 29 32 0 4 4 5 96 0 0 0 0 0 0 0 0 0 0 0 0
0 0 0 0 0 0 0 0 0 0 0 0 0 0 0 0 0 0 0 0 0 0 5 5 5 77 5 1 0 0 5 18 3 0 2 0 0 0 0 0 0 0 0 0
1 0 0 0 0 0 0 0 0 0 0 0 0 0 0 0 0 0 0 0 0 0 3 5 35 4 5 0 0 0 4 3 5 8 0 10 0 0 0 0 0 0 0 0
38 0 0 0 0 0 0 0 0 0 0 0 0 0 0 0 0 0 0 3 12 30 4 4 15 4 48 1 12 2 3 5 6 2 0 0 0 0 0 0 0 0 0 0
86 16 0 0 0 0 0 0 0 0 0 0 0 0 0 0 0 0 0 0 17 88 59 8 1 99 36 1 20 99 7 5 3 20 0 0 0 0 0 0 0 0 0 0
84 24 5 0 0 0 0 0 0 0 0 0 0 0 0 0 0 0 0 0 68 100 100 76 23 69 100 38 11 5 92 5 5 4 13 91 22 0 0 0 0 0 0 0
99 94 82 5 0 0 0 0 0 0 0 0 0 0 0 0 0 0 0 0 49 99 100 100 100 100 100 97 64 31 18 100 98 2 4 16 65 4 1 2 0 0 0 0
66 94 75 70 46 4 0 0 0 0 0 0 0 0 0 0 0 0 0 0 14 73 100 100 100 100 100 100 98 96 93 100 100 98 5 1 0 28 41 86 26 0 0 0
52 22 99 100 100 100 100 22 5 1 0 0 0 0 0 0 0 0 0 0 65 98 100 98 93 91 100 100 100 96 78 71 100 100 88 4 0 0 2 19 22 28 0 0
100 97 35 24 93 98 35 43 25 5 5 4 0 0 0 0 0 0 0 57 85 100 98 98 67 79 57 56 100 100 82 100 100 100 100 100 19 11 73 100 96 1 0 0
100 100 99 68 11 5 5 10 5 5 5 5 0 0 0 0 0 0 0 0 14 83 100 70 20 1 62 3 30 100 100 100 56 100 80 48 41 21 100 74 67 100 42 5
58 11 100 100 98 21 5 5 5 5 5 5 5 1 0 0 0 0 0 0 0 0 32 66 6 17 1 42 0 31 100 100 100 100 88 100 86 73 100 99 94 61 99 60
100 81 11 32 97 95 68 5 5 5 5 5 5 0 0 0 0 3 0 1 10 1 2 20 99 7 80 19 44 0 1 98 100 100 100 84 98 100 100 100 86 98 71 100
88 100 100 47 5 7 41 5 5 5 15 0 0 0 0 0 0 0 0 0 0 0 30 29 7 50 5 98 100 91 6 7 96 100 100 100 100 88 97 100 83 100 100 98
4 24 24 31 25 30 6 5 5 5 4 0 1 4 5 3 5 2 0 0 0 0 1 0 12 77 100 35 99 100 89 61 54 46 49 86 100 100 100 99 98 72 99 100
4 3 4 4 4 5 5 5 5 0 0 0 0 5 8 14 35 39 26 0 0 0 0 0 5 80 79 100 51 99 100 86 35 100 100 29 5 25 100 100 94 64 83 100
4 1 7 0 0 0 0 0 0 0 0 0 5 5 5 9 63 30 63 77 42 13 0 0 4 0 5 83 100 6 25 97 89 42 100 100 62 51 90 94 56 82 77 42
3 16 7 3 0 5 4 0 0 0 0 5 5 5 5 42 69 96 100 100 88 46 63 45 72 31 10 6 76 94 43 12 70 98 98 100 100 97 92 73 99 89 37 41
5 7 2 0 0 0 3 4 5 4 5 5 5 5 7 43 50 94 99 100 100 82 40 95 100 100 75 40 51 82 98 25 0 29 87 88 100 100 100 93 72 99 94 99